Time,TemperatureF,DewpointF,PressureIn,WindDirection,WindDirectionDegrees,WindSpeedMPH,WindSpeedGustMPH,Humidity,HourlyPrecipIn,Conditions,Clouds,dailyrainin,SoftwareType,DateUTC
2013-06-14 00:04:00,73.1,72.2,29.93,WSW,242,0.0,0.0,97,0.00,,,0.00,WeatherCatV1.15B25,2013-06-14 05:04:00,
2013-06-14 00:09:00,73.1,72.2,29.93,WSW,242,0.0,0.0,97,0.00,,,0.00,WeatherCatV1.15B25,2013-06-14 05:09:00,
2013-06-14 00:14:00,73.1,72.2,29.93,WSW,242,0.0,0.0,97,0.00,,,0.00,WeatherCatV1.15B25,2013-06-14 05:14:00,
2013-06-14 00:19:00,73.1,72.2,29.94,WSW,242,0.0,0.0,97,0.00,,,0.00,WeatherCatV1.15B25,2013-06-14 05:19:00,
2013-06-14 00:24:00,73.1,72.2,29.94,WSW,242,0.0,0.0,97,0.00,,,0.00,WeatherCatV1.15B25,2013-06-14 05:24:00,
2013-06-14 00:30:00,73.2,72.3,29.94,WSW,242,0.0,0.0,97,0.00,,,0.00,WeatherCatV1.15B25,2013-06-14 05:30:00,
2013-06-14 00:35:00,73.2,72.3,29.94,WSW,242,0.0,0.0,97,0.00,,,0.00,WeatherCatV1.15B25,2013-06-14 05:35:00,
2013-06-14 00:40:00,73.1,72.2,29.94,WSW,242,0.0,1.0,97,0.00,,,0.00,WeatherCatV1.15B25,2013-06-14 05:40:00,
2013-06-14 00:45:00,73.2,72.3,29.94,WSW,242,0.0,0.0,97,0.00,,,0.00,WeatherCatV1.15B25,2013-06-14 05:45:00,
2013-06-14 00:50:00,73.2,72.6,29.94,WSW,242,0.0,0.0,98,0.00,,,0.00,WeatherCatV1.15B25,2013-06-14 05:50:00,
2013-06-14 00:55:00,73.2,72.6,29.94,WSW,242,0.0,0.0,98,0.00,,,0.00,WeatherCatV1.15B25,2013-06-14 05:55:00,
2013-06-14 01:00:00,73.3,72.7,29.93,WSW,242,0.0,0.0,98,0.00,,,0.00,WeatherCatV1.15B25,2013-06-14 06:00:00,
2013-06-14 01:05:00,73.2,72.3,29.93,WSW,242,0.0,0.0,97,0.00,,,0.00,WeatherCatV1.15B25,2013-06-14 06:05:00,
2013-06-14 01:10:00,73.3,72.7,29.93,WSW,242,0.0,0.0,98,0.00,,,0.00,WeatherCatV1.15B25,2013-06-14 06:10:00,
2013-06-14 01:15:00,73.2,72.3,29.93,WSW,242,0.0,0.0,97,0.00,,,0.00,WeatherCatV1.15B25,2013-06-14 06:15:00,
2013-06-14 01:20:00,73.2,72.6,29.93,WSW,242,0.0,1.0,98,0.00,,,0.00,WeatherCatV1.15B25,2013-06-14 06:20:00,
2013-06-14 01:25:00,73.3,72.4,29.93,WSW,242,0.0,1.0,97,0.00,,,0.00,WeatherCatV1.15B25,2013-06-14 06:25:00,
2013-06-14 01:30:00,73.2,72.3,29.93,WSW,242,0.0,0.0,97,0.00,,,0.00,WeatherCatV1.15B25,2013-06-14 06:30:00,
2013-06-14 01:35:00,73.2,72.6,29.93,WSW,242,0.0,0.0,98,0.00,,,0.00,WeatherCatV1.15B25,2013-06-14 06:35:00,
2013-06-14 01:40:00,73.3,72.7,29.93,WSW,242,0.0,0.0,98,0.00,,,0.00,WeatherCatV1.15B25,2013-06-14 06:40:00,
2013-06-14 01:45:00,73.4,72.8,29.92,WSW,242,0.0,0.0,98,0.00,,,0.00,WeatherCatV1.15B25,2013-06-14 06:45:00,
2013-06-14 01:50:00,73.4,72.8,29.92,WSW,242,0.0,0.0,98,0.00,,,0.00,WeatherCatV1.15B25,2013-06-14 06:50:00,
2013-06-14 01:55:00,73.4,72.5,29.92,WSW,242,0.0,0.0,97,0.00,,,0.00,WeatherCatV1.15B25,2013-06-14 06:55:00,
2013-06-14 02:00:00,73.6,72.7,29.92,WSW,242,0.0,0.0,97,0.00,,,0.00,WeatherCatV1.15B25,2013-06-14 07:00:00,
2013-06-14 02:05:00,73.6,72.7,29.92,WSW,242,0.0,0.0,97,0.00,,,0.00,WeatherCatV1.15B25,2013-06-14 07:05:00,
2013-06-14 02:10:00,73.7,72.8,29.92,WSW,242,0.0,0.0,97,0.00,,,0.00,WeatherCatV1.15B25,2013-06-14 07:10:00,
2013-06-14 02:15:00,73.6,72.7,29.92,WSW,242,0.0,0.0,97,0.00,,,0.00,WeatherCatV1.15B25,2013-06-14 07:15:00,
2013-06-14 02:20:00,73.6,72.7,29.92,WSW,242,0.0,0.0,97,0.00,,,0.00,WeatherCatV1.15B25,2013-06-14 07:20:00,
2013-06-14 02:25:00,73.6,72.7,29.92,WSW,242,0.0,0.0,97,0.00,,,0.00,WeatherCatV1.15B25,2013-06-14 07:25:00,
2013-06-14 02:30:00,73.5,72.6,29.91,WSW,242,0.0,0.0,97,0.00,,,0.00,WeatherCatV1.15B25,2013-06-14 07:30:00,
2013-06-14 02:35:00,73.6,72.7,29.91,WSW,242,0.0,0.0,97,0.00,,,0.00,WeatherCatV1.15B25,2013-06-14 07:35:00,
2013-06-14 02:40:00,73.6,72.7,29.91,WSW,242,0.0,0.0,97,0.00,,,0.00,WeatherCatV1.15B25,2013-06-14 07:40:00,
2013-06-14 02:45:00,73.6,72.7,29.91,WSW,242,0.0,0.0,97,0.00,,,0.00,WeatherCatV1.15B25,2013-06-14 07:45:00,
2013-06-14 02:50:00,73.6,72.7,29.91,WSW,242,0.0,0.0,97,0.00,,,0.00,WeatherCatV1.15B25,2013-06-14 07:50:00,
2013-06-14 02:55:00,73.5,72.6,29.90,WSW,242,0.0,0.0,97,0.00,,,0.00,WeatherCatV1.15B25,2013-06-14 07:55:00,
2013-06-14 03:01:00,73.5,72.6,29.90,WSW,242,0.0,0.0,97,0.00,,,0.00,WeatherCatV1.15B25,2013-06-14 08:01:00,
2013-06-14 03:06:00,73.5,72.6,29.90,WSW,242,0.0,0.0,97,0.00,,,0.00,WeatherCatV1.15B25,2013-06-14 08:06:00,
2013-06-14 03:11:00,73.5,72.6,29.90,WSW,242,0.0,0.0,97,0.00,,,0.00,WeatherCatV1.15B25,2013-06-14 08:11:00,
2013-06-14 03:16:00,73.4,72.5,29.90,WSW,242,0.0,0.0,97,0.00,,,0.00,WeatherCatV1.15B25,2013-06-14 08:16:00,
2013-06-14 03:21:00,73.5,72.9,29.90,WSW,242,0.0,0.0,98,0.00,,,0.00,WeatherCatV1.15B25,2013-06-14 08:21:00,
2013-06-14 03:26:00,73.4,72.8,29.90,WSW,242,0.0,0.0,98,0.00,,,0.00,WeatherCatV1.15B25,2013-06-14 08:26:00,
2013-06-14 03:31:00,73.5,72.9,29.90,WSW,242,0.0,0.0,98,0.00,,,0.00,WeatherCatV1.15B25,2013-06-14 08:31:00,
2013-06-14 03:36:00,73.5,72.9,29.90,WSW,242,0.0,0.0,98,0.00,,,0.00,WeatherCatV1.15B25,2013-06-14 08:36:00,
2013-06-14 03:41:00,73.4,72.8,29.90,WSW,242,0.0,0.0,98,0.00,,,0.00,WeatherCatV1.15B25,2013-06-14 08:41:00,
2013-06-14 03:46:00,73.4,72.8,29.90,WSW,242,0.0,0.0,98,0.00,,,0.00,WeatherCatV1.15B25,2013-06-14 08:46:00,
2013-06-14 03:51:00,73.5,72.9,29.90,WSW,242,0.0,0.0,98,0.00,,,0.00,WeatherCatV1.15B25,2013-06-14 08:51:00,
2013-06-14 03:56:00,73.5,72.9,29.90,WSW,242,0.0,0.0,98,0.00,,,0.00,WeatherCatV1.15B25,2013-06-14 08:56:00,
2013-06-14 04:01:00,73.4,72.8,29.90,WSW,242,0.0,0.0,98,0.00,,,0.00,WeatherCatV1.15B25,2013-06-14 09:01:00,
2013-06-14 04:06:00,73.4,72.8,29.90,WSW,242,0.0,0.0,98,0.00,,,0.00,WeatherCatV1.15B25,2013-06-14 09:06:00,
2013-06-14 04:11:00,73.4,72.8,29.90,WSW,242,0.0,0.0,98,0.00,,,0.00,WeatherCatV1.15B25,2013-06-14 09:11:00,
2013-06-14 04:16:00,73.4,72.8,29.90,WSW,242,0.0,0.0,98,0.00,,,0.00,WeatherCatV1.15B25,2013-06-14 09:16:00,
2013-06-14 04:21:00,73.4,72.8,29.90,WSW,242,0.0,0.0,98,0.00,,,0.00,WeatherCatV1.15B25,2013-06-14 09:21:00,
2013-06-14 04:26:00,73.3,72.7,29.91,WSW,242,0.0,0.0,98,0.00,,,0.00,WeatherCatV1.15B25,2013-06-14 09:26:00,
2013-06-14 04:31:00,73.3,72.7,29.91,WSW,242,0.0,0.0,98,0.00,,,0.00,WeatherCatV1.15B25,2013-06-14 09:31:00,
2013-06-14 04:36:00,73.3,72.7,29.91,WSW,242,0.0,0.0,98,0.00,,,0.00,WeatherCatV1.15B25,2013-06-14 09:36:00,
2013-06-14 04:41:00,73.3,72.7,29.91,WSW,242,0.0,0.0,98,0.00,,,0.00,WeatherCatV1.15B25,2013-06-14 09:41:00,
2013-06-14 04:46:00,73.3,72.7,29.91,WSW,242,0.0,0.0,98,0.00,,,0.00,WeatherCatV1.15B25,2013-06-14 09:46:00,
2013-06-14 04:51:00,73.3,72.7,29.91,WSW,242,0.0,0.0,98,0.00,,,0.00,WeatherCatV1.15B25,2013-06-14 09:51:00,
2013-06-14 04:56:00,73.3,72.7,29.91,WSW,242,0.0,0.0,98,0.00,,,0.00,WeatherCatV1.15B25,2013-06-14 09:56:00,
2013-06-14 05:01:00,73.4,72.8,29.91,WSW,242,0.0,0.0,98,0.00,,,0.00,WeatherCatV1.15B25,2013-06-14 10:01:00,
2013-06-14 05:06:00,73.4,72.8,29.91,WSW,242,0.0,0.0,98,0.00,,,0.00,WeatherCatV1.15B25,2013-06-14 10:06:00,
2013-06-14 05:11:00,73.5,72.9,29.91,WSW,242,0.0,0.0,98,0.00,,,0.00,WeatherCatV1.15B25,2013-06-14 10:11:00,
2013-06-14 05:16:00,73.6,73.0,29.92,WSW,242,0.0,1.0,98,0.00,,,0.00,WeatherCatV1.15B25,2013-06-14 10:16:00,
2013-06-14 05:21:00,73.7,73.1,29.92,WSW,242,0.0,0.0,98,0.00,,,0.00,WeatherCatV1.15B25,2013-06-14 10:21:00,
2013-06-14 05:26:00,73.7,73.1,29.92,WSW,242,0.0,0.0,98,0.00,,,0.00,WeatherCatV1.15B25,2013-06-14 10:26:00,
2013-06-14 05:32:00,73.7,73.1,29.92,WSW,242,0.0,0.0,98,0.00,,,0.00,WeatherCatV1.15B25,2013-06-14 10:32:00,
2013-06-14 05:37:00,73.8,73.2,29.92,WSW,242,1.0,1.0,98,0.00,,,0.00,WeatherCatV1.15B25,2013-06-14 10:37:00,
2013-06-14 05:42:00,73.9,73.3,29.92,WSW,242,0.0,0.0,98,0.00,,,0.00,WeatherCatV1.15B25,2013-06-14 10:42:00,
2013-06-14 05:47:00,73.9,73.3,29.92,WSW,242,0.0,0.0,98,0.00,,,0.00,WeatherCatV1.15B25,2013-06-14 10:47:00,
2013-06-14 05:52:00,73.9,73.3,29.92,WSW,242,0.0,0.0,98,0.00,,,0.00,WeatherCatV1.15B25,2013-06-14 10:52:00,
2013-06-14 05:57:00,74.0,73.4,29.93,WSW,242,0.0,0.0,98,0.00,,,0.00,WeatherCatV1.15B25,2013-06-14 10:57:00,
2013-06-14 06:02:00,74.0,73.4,29.92,WSW,242,0.0,1.0,98,0.00,,,0.00,WeatherCatV1.15B25,2013-06-14 11:02:00,
2013-06-14 06:07:00,74.0,73.4,29.93,WSW,242,0.0,0.0,98,0.00,,,0.00,WeatherCatV1.15B25,2013-06-14 11:07:00,
2013-06-14 06:12:00,74.0,73.4,29.93,WSW,242,0.0,1.0,98,0.00,,,0.00,WeatherCatV1.15B25,2013-06-14 11:12:00,
2013-06-14 06:17:00,74.0,73.4,29.93,WSW,242,0.0,2.0,98,0.00,,,0.00,WeatherCatV1.15B25,2013-06-14 11:17:00,
2013-06-14 06:22:00,74.0,73.4,29.94,WSW,242,1.0,1.0,98,0.00,,,0.01,WeatherCatV1.15B25,2013-06-14 11:22:00,
2013-06-14 06:27:00,73.9,73.3,29.94,WSW,242,0.0,0.0,98,0.00,,,0.01,WeatherCatV1.15B25,2013-06-14 11:27:00,
2013-06-14 06:32:00,73.9,73.3,29.94,WSW,242,0.0,0.0,98,0.00,,,0.01,WeatherCatV1.15B25,2013-06-14 11:32:00,
2013-06-14 06:37:00,73.9,73.3,29.94,ENE,76,0.0,0.0,98,0.00,,,0.01,WeatherCatV1.15B25,2013-06-14 11:37:00,
2013-06-14 06:42:00,73.9,73.3,29.95,ENE,75,0.0,1.0,98,0.00,,,0.01,WeatherCatV1.15B25,2013-06-14 11:42:00,
2013-06-14 06:47:00,73.9,73.3,29.95,NE,53,0.0,0.0,98,0.00,,,0.01,WeatherCatV1.15B25,2013-06-14 11:47:00,
2013-06-14 06:52:00,73.9,73.3,29.95,NE,53,0.0,0.0,98,0.00,,,0.01,WeatherCatV1.15B25,2013-06-14 11:52:00,
2013-06-14 06:57:00,73.9,73.3,29.95,NE,54,0.0,2.0,98,0.00,,,0.01,WeatherCatV1.15B25,2013-06-14 11:57:00,
2013-06-14 07:02:00,73.9,73.3,29.95,NE,53,0.0,0.0,98,0.00,,,0.01,WeatherCatV1.15B25,2013-06-14 12:02:00,
2013-06-14 07:07:00,73.9,73.3,29.95,NE,54,0.0,1.0,98,0.00,,,0.01,WeatherCatV1.15B25,2013-06-14 12:07:00,
2013-06-14 07:12:00,73.9,73.3,29.95,NE,53,1.0,1.0,98,0.00,,,0.01,WeatherCatV1.15B25,2013-06-14 12:12:00,
2013-06-14 07:17:00,73.9,73.3,29.95,NE,53,0.0,0.0,98,0.00,,,0.01,WeatherCatV1.15B25,2013-06-14 12:17:00,
2013-06-14 07:22:00,73.9,73.3,29.95,NE,53,0.0,0.0,98,0.00,,,0.01,WeatherCatV1.15B25,2013-06-14 12:22:00,
2013-06-14 07:27:00,73.9,73.3,29.95,NE,53,0.0,1.0,98,0.00,,,0.01,WeatherCatV1.15B25,2013-06-14 12:27:00,
2013-06-14 07:32:00,73.9,73.3,29.95,NE,53,0.0,1.0,98,0.00,,,0.01,WeatherCatV1.15B25,2013-06-14 12:32:00,
2013-06-14 07:37:00,73.9,73.3,29.95,NE,53,0.0,1.0,98,0.00,,,0.01,WeatherCatV1.15B25,2013-06-14 12:37:00,
2013-06-14 07:42:00,73.9,73.3,29.95,NE,53,1.0,1.0,98,0.00,,,0.01,WeatherCatV1.15B25,2013-06-14 12:42:00,
2013-06-14 07:47:00,73.9,73.3,29.95,NE,53,0.0,0.0,98,0.00,,,0.01,WeatherCatV1.15B25,2013-06-14 12:47:00,
2013-06-14 07:52:00,74.0,73.4,29.95,NE,53,0.0,0.0,98,0.00,,,0.01,WeatherCatV1.15B25,2013-06-14 12:52:00,
2013-06-14 07:58:00,74.0,73.4,29.95,NE,53,0.0,0.0,98,0.00,,,0.01,WeatherCatV1.15B25,2013-06-14 12:58:00,
2013-06-14 08:03:00,74.1,73.5,29.95,NE,53,0.0,0.0,98,0.00,,,0.01,WeatherCatV1.15B25,2013-06-14 13:03:00,
2013-06-14 08:08:00,74.1,73.5,29.96,NE,53,0.0,0.0,98,0.00,,,0.01,WeatherCatV1.15B25,2013-06-14 13:08:00,
2013-06-14 08:13:00,74.2,73.6,29.96,NE,53,0.0,0.0,98,0.00,,,0.01,WeatherCatV1.15B25,2013-06-14 13:13:00,
2013-06-14 08:18:00,74.2,73.6,29.96,NE,53,0.0,0.0,98,0.00,,,0.01,WeatherCatV1.15B25,2013-06-14 13:18:00,
2013-06-14 08:23:00,74.3,73.7,29.96,NE,53,0.0,0.0,98,0.00,,,0.01,WeatherCatV1.15B25,2013-06-14 13:23:00,
2013-06-14 08:28:00,74.4,74.1,29.96,NE,53,0.0,1.0,99,0.00,,,0.01,WeatherCatV1.15B25,2013-06-14 13:28:00,
2013-06-14 08:33:00,74.5,74.2,29.96,NE,53,0.0,1.0,99,0.00,,,0.01,WeatherCatV1.15B25,2013-06-14 13:33:00,
2013-06-14 08:38:00,74.6,74.3,29.96,NE,53,0.0,1.0,99,0.00,,,0.01,WeatherCatV1.15B25,2013-06-14 13:38:00,
2013-06-14 08:43:00,74.7,74.4,29.96,NE,53,0.0,0.0,99,0.00,,,0.01,WeatherCatV1.15B25,2013-06-14 13:43:00,
2013-06-14 08:48:00,74.8,74.5,29.96,NE,53,0.0,0.0,99,0.00,,,0.01,WeatherCatV1.15B25,2013-06-14 13:48:00,
2013-06-14 08:53:00,74.9,74.6,29.96,NE,53,0.0,1.0,99,0.00,,,0.01,WeatherCatV1.15B25,2013-06-14 13:53:00,
2013-06-14 08:58:00,75.0,74.7,29.97,ENE,74,0.0,0.0,99,0.00,,,0.01,WeatherCatV1.15B25,2013-06-14 13:58:00,
2013-06-14 09:03:00,75.1,74.8,29.97,ENE,74,0.0,0.0,99,0.00,,,0.01,WeatherCatV1.15B25,2013-06-14 14:03:00,
2013-06-14 09:08:00,75.3,75.0,29.97,ENE,74,0.0,0.0,99,0.00,,,0.01,WeatherCatV1.15B25,2013-06-14 14:08:00,
2013-06-14 09:13:00,75.4,75.1,29.97,ENE,74,0.0,0.0,99,0.00,,,0.01,WeatherCatV1.15B25,2013-06-14 14:13:00,
2013-06-14 09:18:00,75.5,75.2,29.97,ENE,75,0.0,1.0,99,0.00,,,0.01,WeatherCatV1.15B25,2013-06-14 14:18:00,
2013-06-14 09:23:00,75.6,75.3,29.97,ESE,115,0.0,1.0,99,0.00,,,0.01,WeatherCatV1.15B25,2013-06-14 14:23:00,
2013-06-14 09:28:00,75.7,75.4,29.97,ESE,115,0.0,1.0,99,0.00,,,0.01,WeatherCatV1.15B25,2013-06-14 14:28:00,
2013-06-14 09:33:00,75.8,75.5,29.97,ENE,78,0.0,1.0,99,0.00,,,0.01,WeatherCatV1.15B25,2013-06-14 14:33:00,
2013-06-14 09:38:00,75.9,75.6,29.97,ENE,78,0.0,0.0,99,0.00,,,0.01,WeatherCatV1.15B25,2013-06-14 14:38:00,
2013-06-14 09:43:00,76.0,75.7,29.97,North,5,0.0,0.0,99,0.00,,,0.01,WeatherCatV1.15B25,2013-06-14 14:43:00,
2013-06-14 09:48:00,76.2,75.9,29.97,ESE,122,0.0,1.0,99,0.00,,,0.01,WeatherCatV1.15B25,2013-06-14 14:48:00,
2013-06-14 09:53:00,76.3,76.0,29.97,ESE,122,0.0,1.0,99,0.00,,,0.01,WeatherCatV1.15B25,2013-06-14 14:53:00,
2013-06-14 09:58:00,76.3,76.0,29.97,ESE,122,0.0,0.0,99,0.00,,,0.01,WeatherCatV1.15B25,2013-06-14 14:58:00,
2013-06-14 10:03:00,76.4,76.1,29.97,ESE,122,0.0,1.0,99,0.00,,,0.01,WeatherCatV1.15B25,2013-06-14 15:03:00,
2013-06-14 10:08:00,76.5,76.2,29.97,ESE,122,0.0,1.0,99,0.00,,,0.01,WeatherCatV1.15B25,2013-06-14 15:08:00,
2013-06-14 10:13:00,76.5,76.2,29.97,ESE,122,0.0,0.0,99,0.00,,,0.01,WeatherCatV1.15B25,2013-06-14 15:13:00,
2013-06-14 10:18:00,76.6,76.3,29.96,ESE,122,0.0,0.0,99,0.00,,,0.01,WeatherCatV1.15B25,2013-06-14 15:18:00,
2013-06-14 10:23:00,76.6,76.3,29.96,ESE,123,0.0,1.0,99,0.00,,,0.01,WeatherCatV1.15B25,2013-06-14 15:23:00,
2013-06-14 10:29:00,76.7,76.4,29.96,ESE,123,0.0,0.0,99,0.00,,,0.01,WeatherCatV1.15B25,2013-06-14 15:29:00,
2013-06-14 10:34:00,76.8,76.5,29.95,ESE,123,0.0,0.0,99,0.00,,,0.01,WeatherCatV1.15B25,2013-06-14 15:34:00,
2013-06-14 10:39:00,77.1,76.8,29.95,ESE,123,0.0,0.0,99,0.00,,,0.01,WeatherCatV1.15B25,2013-06-14 15:39:00,
2013-06-14 10:44:00,77.2,76.9,29.96,East,95,1.0,1.0,99,0.00,,,0.01,WeatherCatV1.15B25,2013-06-14 15:44:00,
2013-06-14 10:49:00,77.5,77.2,29.96,East,80,0.0,1.0,99,0.00,,,0.01,WeatherCatV1.15B25,2013-06-14 15:49:00,
2013-06-14 10:54:00,77.5,76.9,29.96,East,80,0.0,1.0,98,0.00,,,0.01,WeatherCatV1.15B25,2013-06-14 15:54:00,
2013-06-14 10:59:00,77.6,77.0,29.95,East,80,0.0,1.0,98,0.00,,,0.01,WeatherCatV1.15B25,2013-06-14 15:59:00,
2013-06-14 11:04:00,77.7,77.1,29.95,East,80,0.0,1.0,98,0.00,,,0.01,WeatherCatV1.15B25,2013-06-14 16:04:00,
2013-06-14 11:09:00,78.2,77.6,29.95,East,80,0.0,1.0,98,0.00,,,0.01,WeatherCatV1.15B25,2013-06-14 16:09:00,
2013-06-14 11:14:00,78.5,77.9,29.95,East,80,0.0,1.0,98,0.00,,,0.01,WeatherCatV1.15B25,2013-06-14 16:14:00,
2013-06-14 11:19:00,78.5,77.3,29.95,ESE,105,0.0,1.0,96,0.00,,,0.01,WeatherCatV1.15B25,2013-06-14 16:19:00,
2013-06-14 11:24:00,78.7,77.1,29.95,East,99,0.0,1.0,95,0.00,,,0.01,WeatherCatV1.15B25,2013-06-14 16:24:00,
2013-06-14 11:29:00,79.1,77.5,29.95,ESE,103,1.0,1.0,95,0.00,,,0.01,WeatherCatV1.15B25,2013-06-14 16:29:00,
2013-06-14 11:34:00,79.6,77.4,29.95,SSE,165,1.0,2.0,93,0.00,,,0.01,WeatherCatV1.15B25,2013-06-14 16:34:00,
2013-06-14 11:39:00,79.8,76.9,29.95,ESE,121,0.0,2.0,91,0.00,,,0.01,WeatherCatV1.15B25,2013-06-14 16:39:00,
2013-06-14 11:44:00,80.5,78.0,29.95,ESE,107,0.0,1.0,92,0.00,,,0.01,WeatherCatV1.15B25,2013-06-14 16:44:00,
2013-06-14 11:49:00,81.6,78.7,29.95,ESE,107,0.0,0.0,91,0.00,,,0.01,WeatherCatV1.15B25,2013-06-14 16:49:00,
2013-06-14 11:54:00,82.5,77.9,29.95,South,179,0.0,4.0,86,0.00,,,0.01,WeatherCatV1.15B25,2013-06-14 16:54:00,
2013-06-14 11:59:00,82.8,77.5,29.94,South,180,0.0,1.0,84,0.00,,,0.01,WeatherCatV1.15B25,2013-06-14 16:59:00,
2013-06-14 12:04:00,82.6,76.5,29.94,South,171,1.0,2.0,82,0.00,,,0.01,WeatherCatV1.15B25,2013-06-14 17:04:00,
2013-06-14 12:09:00,82.5,76.8,29.94,South,171,0.0,2.0,83,0.00,,,0.01,WeatherCatV1.15B25,2013-06-14 17:09:00,
2013-06-14 12:14:00,82.3,76.2,29.94,SW,235,0.0,2.0,82,0.00,,,0.01,WeatherCatV1.15B25,2013-06-14 17:14:00,
2013-06-14 12:19:00,82.3,76.6,29.94,SSE,162,1.0,2.0,83,0.00,,,0.01,WeatherCatV1.15B25,2013-06-14 17:19:00,
2013-06-14 12:24:00,82.4,76.3,29.94,SSW,198,0.0,3.0,82,0.00,,,0.01,WeatherCatV1.15B25,2013-06-14 17:24:00,
2013-06-14 12:29:00,82.5,76.4,29.94,SSW,208,1.0,3.0,82,0.00,,,0.01,WeatherCatV1.15B25,2013-06-14 17:29:00,
2013-06-14 12:34:00,82.2,75.8,29.94,South,188,1.0,2.0,81,0.00,,,0.01,WeatherCatV1.15B25,2013-06-14 17:34:00,
2013-06-14 12:39:00,82.1,76.0,29.95,South,186,0.0,0.0,82,0.00,,,0.01,WeatherCatV1.15B25,2013-06-14 17:39:00,
2013-06-14 12:44:00,81.9,75.8,29.95,SSW,192,0.0,2.0,82,0.00,,,0.01,WeatherCatV1.15B25,2013-06-14 17:44:00,
2013-06-14 12:49:00,81.8,75.7,29.94,SSW,197,0.0,2.0,82,0.00,,,0.01,WeatherCatV1.15B25,2013-06-14 17:49:00,
2013-06-14 12:54:00,81.9,76.2,29.94,SSE,164,0.0,4.0,83,0.00,,,0.01,WeatherCatV1.15B25,2013-06-14 17:54:00,
2013-06-14 13:00:00,82.0,75.6,29.94,South,188,0.0,2.0,81,0.00,,,0.01,WeatherCatV1.15B25,2013-06-14 18:00:00,
2013-06-14 13:05:00,82.0,75.2,29.94,SSW,199,0.0,4.0,80,0.00,,,0.01,WeatherCatV1.15B25,2013-06-14 18:05:00,
2013-06-14 13:10:00,82.1,75.7,29.94,SSW,200,0.0,1.0,81,0.00,,,0.01,WeatherCatV1.15B25,2013-06-14 18:10:00,
2013-06-14 13:15:00,82.2,76.1,29.93,SSW,207,0.0,1.0,82,0.00,,,0.01,WeatherCatV1.15B25,2013-06-14 18:15:00,
2013-06-14 13:20:00,82.4,76.3,29.94,SSW,207,0.0,0.0,82,0.00,,,0.01,WeatherCatV1.15B25,2013-06-14 18:20:00,
2013-06-14 13:25:00,82.6,76.5,29.93,SSW,207,0.0,1.0,82,0.00,,,0.01,WeatherCatV1.15B25,2013-06-14 18:25:00,
2013-06-14 13:30:00,82.7,76.6,29.93,SSW,207,0.0,0.0,82,0.00,,,0.01,WeatherCatV1.15B25,2013-06-14 18:30:00,
2013-06-14 13:35:00,82.9,76.4,29.93,SSW,207,0.0,0.0,81,0.00,,,0.01,WeatherCatV1.15B25,2013-06-14 18:35:00,
2013-06-14 13:40:00,82.9,76.1,29.93,SSW,207,0.0,0.0,80,0.00,,,0.01,WeatherCatV1.15B25,2013-06-14 18:40:00,
2013-06-14 13:45:00,82.9,76.1,29.93,SSW,207,0.0,0.0,80,0.00,,,0.01,WeatherCatV1.15B25,2013-06-14 18:45:00,
2013-06-14 13:50:00,82.9,75.3,29.93,SE,141,0.0,4.0,78,0.00,,,0.01,WeatherCatV1.15B25,2013-06-14 18:50:00,
2013-06-14 13:55:00,83.0,75.8,29.93,SE,141,0.0,1.0,79,0.00,,,0.01,WeatherCatV1.15B25,2013-06-14 18:55:00,
2013-06-14 14:00:00,83.3,76.5,29.93,SE,141,0.0,1.0,80,0.00,,,0.01,WeatherCatV1.15B25,2013-06-14 19:00:00,
2013-06-14 14:05:00,83.5,75.5,29.92,SE,142,0.0,0.0,77,0.00,,,0.01,WeatherCatV1.15B25,2013-06-14 19:05:00,
2013-06-14 14:10:00,83.9,75.9,29.92,SE,142,0.0,1.0,77,0.00,,,0.01,WeatherCatV1.15B25,2013-06-14 19:10:00,
2013-06-14 14:15:00,84.1,75.3,29.92,ESE,112,0.0,1.0,75,0.00,,,0.01,WeatherCatV1.15B25,2013-06-14 19:15:00,
2013-06-14 14:20:00,84.3,75.5,29.92,ESE,112,0.0,1.0,75,0.00,,,0.01,WeatherCatV1.15B25,2013-06-14 19:20:00,
2013-06-14 14:25:00,84.8,75.2,29.92,ESE,113,0.0,0.0,73,0.00,,,0.01,WeatherCatV1.15B25,2013-06-14 19:25:00,
2013-06-14 14:30:00,85.2,75.1,29.91,ESE,113,0.0,1.0,72,0.00,,,0.01,WeatherCatV1.15B25,2013-06-14 19:30:00,
2013-06-14 14:35:00,85.4,74.0,29.91,ESE,113,0.0,0.0,69,0.00,,,0.01,WeatherCatV1.15B25,2013-06-14 19:35:00,
2013-06-14 14:40:00,85.7,75.2,29.91,ESE,113,0.0,1.0,71,0.00,,,0.01,WeatherCatV1.15B25,2013-06-14 19:40:00,
2013-06-14 14:45:00,85.8,75.3,29.91,East,101,1.0,2.0,71,0.00,,,0.01,WeatherCatV1.15B25,2013-06-14 19:45:00,
2013-06-14 14:50:00,85.6,74.7,29.91,East,101,1.0,2.0,70,0.00,,,0.01,WeatherCatV1.15B25,2013-06-14 19:50:00,
2013-06-14 14:55:00,85.5,75.4,29.91,East,101,0.0,2.0,72,0.00,,,0.01,WeatherCatV1.15B25,2013-06-14 19:55:00,
2013-06-14 15:00:00,85.7,75.6,29.90,East,89,0.0,1.0,72,0.00,,,0.01,WeatherCatV1.15B25,2013-06-14 20:00:00,
2013-06-14 15:05:00,85.9,75.4,29.90,East,98,0.0,2.0,71,0.00,,,0.01,WeatherCatV1.15B25,2013-06-14 20:05:00,
2013-06-14 15:10:00,85.9,75.4,29.90,ENE,68,4.0,4.0,71,0.00,,,0.01,WeatherCatV1.15B25,2013-06-14 20:10:00,
2013-06-14 15:15:00,85.9,76.2,29.90,ENE,65,0.0,3.0,73,0.00,,,0.01,WeatherCatV1.15B25,2013-06-14 20:15:00,
2013-06-14 15:20:00,86.0,75.5,29.90,East,92,2.0,3.0,71,0.00,,,0.01,WeatherCatV1.15B25,2013-06-14 20:20:00,
2013-06-14 15:25:00,86.3,76.6,29.90,North,5,0.0,1.0,73,0.00,,,0.01,WeatherCatV1.15B25,2013-06-14 20:25:00,
2013-06-14 15:31:00,86.2,75.7,29.90,NE,51,0.0,2.0,71,0.00,,,0.01,WeatherCatV1.15B25,2013-06-14 20:31:00,
2013-06-14 15:36:00,86.3,75.3,29.90,East,95,0.0,1.0,70,0.00,,,0.01,WeatherCatV1.15B25,2013-06-14 20:36:00,
2013-06-14 15:41:00,86.5,75.9,29.90,East,95,0.0,1.0,71,0.00,,,0.01,WeatherCatV1.15B25,2013-06-14 20:41:00,
2013-06-14 15:46:00,86.8,76.2,29.89,North,355,1.0,1.0,71,0.00,,,0.01,WeatherCatV1.15B25,2013-06-14 20:46:00,
2013-06-14 15:51:00,87.0,76.0,29.90,ESE,102,1.0,5.0,70,0.00,,,0.01,WeatherCatV1.15B25,2013-06-14 20:51:00,
2013-06-14 15:56:00,86.9,75.9,29.90,NE,53,1.0,6.0,70,0.00,,,0.01,WeatherCatV1.15B25,2013-06-14 20:56:00,
2013-06-14 16:01:00,87.1,76.5,29.90,ENE,68,0.0,2.0,71,0.00,,,0.01,WeatherCatV1.15B25,2013-06-14 21:01:00,
2013-06-14 16:06:00,87.4,75.9,29.89,ENE,73,0.0,0.0,69,0.00,,,0.01,WeatherCatV1.15B25,2013-06-14 21:06:00,
2013-06-14 16:11:00,87.7,75.8,29.89,ENE,73,0.0,1.0,68,0.00,,,0.01,WeatherCatV1.15B25,2013-06-14 21:11:00,
2013-06-14 16:16:00,87.8,75.9,29.89,ENE,73,0.0,1.0,68,0.00,,,0.01,WeatherCatV1.15B25,2013-06-14 21:16:00,
2013-06-14 16:21:00,87.6,76.1,29.89,ENE,74,0.0,0.0,69,0.00,,,0.01,WeatherCatV1.15B25,2013-06-14 21:21:00,
2013-06-14 16:26:00,87.2,75.3,29.89,ESE,103,0.0,1.0,68,0.00,,,0.01,WeatherCatV1.15B25,2013-06-14 21:26:00,
2013-06-14 16:31:00,87.0,75.6,29.89,ESE,103,0.0,1.0,69,0.00,,,0.01,WeatherCatV1.15B25,2013-06-14 21:31:00,
2013-06-14 16:36:00,86.8,75.8,29.89,ESE,103,0.0,1.0,70,0.00,,,0.01,WeatherCatV1.15B25,2013-06-14 21:36:00,
2013-06-14 16:41:00,86.9,75.5,29.88,ESE,103,0.0,0.0,69,0.00,,,0.01,WeatherCatV1.15B25,2013-06-14 21:41:00,
2013-06-14 16:46:00,87.0,75.1,29.89,ESE,103,0.0,0.0,68,0.00,,,0.01,WeatherCatV1.15B25,2013-06-14 21:46:00,
2013-06-14 16:52:00,87.4,75.5,29.88,ESE,103,0.0,0.0,68,0.00,,,0.01,WeatherCatV1.15B25,2013-06-14 21:52:00,
2013-06-14 16:57:00,87.5,75.6,29.88,ESE,103,0.0,0.0,68,0.00,,,0.01,WeatherCatV1.15B25,2013-06-14 21:57:00,
2013-06-14 17:02:00,87.4,75.1,29.88,ESE,103,0.0,0.0,67,0.00,,,0.01,WeatherCatV1.15B25,2013-06-14 22:02:00,
2013-06-14 17:07:00,87.4,75.5,29.88,ESE,103,0.0,0.0,68,0.00,,,0.01,WeatherCatV1.15B25,2013-06-14 22:07:00,
2013-06-14 17:12:00,87.4,75.1,29.88,ESE,103,0.0,0.0,67,0.00,,,0.01,WeatherCatV1.15B25,2013-06-14 22:12:00,
2013-06-14 17:17:00,87.4,75.5,29.87,ESE,103,0.0,0.0,68,0.00,,,0.01,WeatherCatV1.15B25,2013-06-14 22:17:00,
2013-06-14 17:22:00,87.4,76.4,29.87,ESE,103,0.0,0.0,70,0.00,,,0.01,WeatherCatV1.15B25,2013-06-14 22:22:00,
2013-06-14 17:27:00,87.4,75.9,29.87,ESE,103,0.0,0.0,69,0.00,,,0.01,WeatherCatV1.15B25,2013-06-14 22:27:00,
2013-06-14 17:32:00,87.3,75.9,29.86,ESE,103,0.0,0.0,69,0.00,,,0.01,WeatherCatV1.15B25,2013-06-14 22:32:00,
2013-06-14 17:37:00,87.2,75.8,29.86,ESE,103,0.0,0.0,69,0.00,,,0.01,WeatherCatV1.15B25,2013-06-14 22:37:00,
2013-06-14 17:42:00,87.1,75.7,29.87,SE,146,0.0,1.0,69,0.00,,,0.01,WeatherCatV1.15B25,2013-06-14 22:42:00,
2013-06-14 17:47:00,86.9,75.5,29.86,SE,146,0.0,0.0,69,0.00,,,0.01,WeatherCatV1.15B25,2013-06-14 22:47:00,
2013-06-14 17:52:00,86.8,75.4,29.86,NNE,16,0.0,0.0,69,0.00,,,0.01,WeatherCatV1.15B25,2013-06-14 22:52:00,
2013-06-14 17:57:00,86.8,75.4,29.86,NNE,16,0.0,0.0,69,0.00,,,0.01,WeatherCatV1.15B25,2013-06-14 22:57:00,
2013-06-14 18:02:00,86.8,77.1,29.86,NNE,16,0.0,0.0,73,0.00,,,0.01,WeatherCatV1.15B25,2013-06-14 23:02:00,
2013-06-14 18:07:00,86.8,77.1,29.86,NNE,16,0.0,0.0,73,0.00,,,0.01,WeatherCatV1.15B25,2013-06-14 23:07:00,
2013-06-14 18:12:00,86.7,76.6,29.86,NNE,16,0.0,0.0,72,0.00,,,0.01,WeatherCatV1.15B25,2013-06-14 23:12:00,
2013-06-14 18:17:00,86.6,75.6,29.86,NNE,16,0.0,0.0,70,0.00,,,0.01,WeatherCatV1.15B25,2013-06-14 23:17:00,
2013-06-14 18:22:00,86.4,75.9,29.86,NNE,16,0.0,0.0,71,0.00,,,0.01,WeatherCatV1.15B25,2013-06-14 23:22:00,
2013-06-14 18:27:00,86.2,75.7,29.86,NNE,16,0.0,0.0,71,0.00,,,0.01,WeatherCatV1.15B25,2013-06-14 23:27:00,
2013-06-14 18:32:00,86.1,76.4,29.86,NNE,16,0.0,0.0,73,0.00,,,0.01,WeatherCatV1.15B25,2013-06-14 23:32:00,
2013-06-14 18:37:00,85.9,75.8,29.86,NNE,16,0.0,1.0,72,0.00,,,0.01,WeatherCatV1.15B25,2013-06-14 23:37:00,
2013-06-14 18:42:00,85.8,76.1,29.86,NNE,16,0.0,0.0,73,0.00,,,0.01,WeatherCatV1.15B25,2013-06-14 23:42:00,
2013-06-14 18:47:00,85.7,76.8,29.86,NNE,16,0.0,0.0,75,0.00,,,0.01,WeatherCatV1.15B25,2013-06-14 23:47:00,
2013-06-14 18:52:00,85.6,76.7,29.86,NNE,16,0.0,0.0,75,0.00,,,0.01,WeatherCatV1.15B25,2013-06-14 23:52:00,
2013-06-14 18:57:00,85.5,77.0,29.86,NNE,16,0.0,0.0,76,0.00,,,0.01,WeatherCatV1.15B25,2013-06-14 23:57:00,
2013-06-14 19:02:00,85.3,76.4,29.86,NNE,16,0.0,0.0,75,0.00,,,0.01,WeatherCatV1.15B25,2013-06-15 00:02:00,
2013-06-14 19:07:00,85.0,77.0,29.86,NNE,16,0.0,0.0,77,0.00,,,0.01,WeatherCatV1.15B25,2013-06-15 00:07:00,
2013-06-14 19:12:00,84.8,76.8,29.86,NNE,16,0.0,0.0,77,0.00,,,0.01,WeatherCatV1.15B25,2013-06-15 00:12:00,
2013-06-14 19:18:00,84.6,77.0,29.86,NNE,16,0.0,0.0,78,0.00,,,0.01,WeatherCatV1.15B25,2013-06-15 00:18:00,
2013-06-14 19:23:00,84.4,76.8,29.86,NNE,16,0.0,0.0,78,0.00,,,0.01,WeatherCatV1.15B25,2013-06-15 00:23:00,
2013-06-14 19:28:00,84.3,77.1,29.86,NNE,16,0.0,0.0,79,0.00,,,0.01,WeatherCatV1.15B25,2013-06-15 00:28:00,
2013-06-14 19:33:00,84.1,76.9,29.86,NNE,16,0.0,0.0,79,0.00,,,0.01,WeatherCatV1.15B25,2013-06-15 00:33:00,
2013-06-14 19:38:00,83.9,76.7,29.87,NNE,16,0.0,0.0,79,0.00,,,0.01,WeatherCatV1.15B25,2013-06-15 00:38:00,
2013-06-14 19:43:00,83.7,76.1,29.87,NNE,16,0.0,0.0,78,0.00,,,0.01,WeatherCatV1.15B25,2013-06-15 00:43:00,
2013-06-14 19:48:00,83.6,76.4,29.87,NNE,16,0.0,0.0,79,0.00,,,0.01,WeatherCatV1.15B25,2013-06-15 00:48:00,
2013-06-14 19:53:00,83.4,76.6,29.87,NNE,16,0.0,0.0,80,0.00,,,0.01,WeatherCatV1.15B25,2013-06-15 00:53:00,
2013-06-14 19:58:00,83.3,76.8,29.87,NNE,16,0.0,0.0,81,0.00,,,0.01,WeatherCatV1.15B25,2013-06-15 00:58:00,
2013-06-14 20:03:00,83.1,76.6,29.87,NNE,16,0.0,0.0,81,0.00,,,0.01,WeatherCatV1.15B25,2013-06-15 01:03:00,
2013-06-14 20:08:00,82.9,76.8,29.87,NNE,16,0.0,0.0,82,0.00,,,0.01,WeatherCatV1.15B25,2013-06-15 01:08:00,
2013-06-14 20:13:00,82.7,76.6,29.87,NNE,16,0.0,0.0,82,0.00,,,0.01,WeatherCatV1.15B25,2013-06-15 01:13:00,
2013-06-14 20:18:00,82.5,76.8,29.87,NNE,16,0.0,0.0,83,0.00,,,0.01,WeatherCatV1.15B25,2013-06-15 01:18:00,
2013-06-14 20:23:00,82.2,76.5,29.87,NNE,16,0.0,0.0,83,0.00,,,0.01,WeatherCatV1.15B25,2013-06-15 01:23:00,
2013-06-14 20:28:00,81.9,76.6,29.87,NNE,16,0.0,0.0,84,0.00,,,0.01,WeatherCatV1.15B25,2013-06-15 01:28:00,
2013-06-14 20:34:00,81.6,76.3,29.87,NNE,16,0.0,0.0,84,0.00,,,0.01,WeatherCatV1.15B25,2013-06-15 01:34:00,
2013-06-14 20:39:00,81.4,76.1,29.87,NNE,16,0.0,0.0,84,0.00,,,0.01,WeatherCatV1.15B25,2013-06-15 01:39:00,
2013-06-14 20:44:00,81.2,75.9,29.87,NNE,16,0.0,0.0,84,0.00,,,0.01,WeatherCatV1.15B25,2013-06-15 01:44:00,
2013-06-14 20:49:00,81.1,75.8,29.87,NNE,16,0.0,0.0,84,0.00,,,0.01,WeatherCatV1.15B25,2013-06-15 01:49:00,
2013-06-14 20:54:00,81.0,75.7,29.87,NNE,16,0.0,0.0,84,0.00,,,0.01,WeatherCatV1.15B25,2013-06-15 01:54:00,
2013-06-14 20:59:00,80.8,75.5,29.87,NNE,16,0.0,0.0,84,0.00,,,0.01,WeatherCatV1.15B25,2013-06-15 01:59:00,
2013-06-14 21:04:00,80.6,75.7,29.87,NNE,16,0.0,0.0,85,0.00,,,0.01,WeatherCatV1.15B25,2013-06-15 02:04:00,
2013-06-14 21:09:00,80.5,75.6,29.88,NNE,16,0.0,0.0,85,0.00,,,0.01,WeatherCatV1.15B25,2013-06-15 02:09:00,
2013-06-14 21:14:00,80.4,75.5,29.88,NNE,16,0.0,0.0,85,0.00,,,0.01,WeatherCatV1.15B25,2013-06-15 02:14:00,
2013-06-14 21:19:00,80.3,75.0,29.88,NNE,16,0.0,0.0,84,0.00,,,0.01,WeatherCatV1.15B25,2013-06-15 02:19:00,
2013-06-14 21:24:00,80.2,75.3,29.88,NNE,16,0.0,0.0,85,0.00,,,0.01,WeatherCatV1.15B25,2013-06-15 02:24:00,
2013-06-14 21:29:00,80.1,75.2,29.88,NNE,16,0.0,0.0,85,0.00,,,0.01,WeatherCatV1.15B25,2013-06-15 02:29:00,
2013-06-14 21:34:00,80.0,75.1,29.88,NNE,16,0.0,0.0,85,0.00,,,0.01,WeatherCatV1.15B25,2013-06-15 02:34:00,
2013-06-14 21:39:00,79.9,75.0,29.88,NNE,16,0.0,0.0,85,0.00,,,0.01,WeatherCatV1.15B25,2013-06-15 02:39:00,
2013-06-14 21:44:00,79.7,75.1,29.88,NNE,16,0.0,0.0,86,0.00,,,0.01,WeatherCatV1.15B25,2013-06-15 02:44:00,
2013-06-14 21:49:00,79.7,75.5,29.88,NNE,16,0.0,0.0,87,0.00,,,0.01,WeatherCatV1.15B25,2013-06-15 02:49:00,
2013-06-14 21:54:00,79.6,75.4,29.88,NNE,16,0.0,0.0,87,0.00,,,0.01,WeatherCatV1.15B25,2013-06-15 02:54:00,
2013-06-14 21:59:00,79.4,75.2,29.88,NNE,16,0.0,0.0,87,0.00,,,0.01,WeatherCatV1.15B25,2013-06-15 02:59:00,
2013-06-14 22:04:00,79.3,75.1,29.88,NNE,16,0.0,0.0,87,0.00,,,0.01,WeatherCatV1.15B25,2013-06-15 03:04:00,
2013-06-14 22:09:00,79.2,75.0,29.88,NNE,16,0.0,0.0,87,0.00,,,0.01,WeatherCatV1.15B25,2013-06-15 03:09:00,
2013-06-14 22:14:00,79.1,75.2,29.89,NNE,16,0.0,0.0,88,0.00,,,0.01,WeatherCatV1.15B25,2013-06-15 03:14:00,
2013-06-14 22:19:00,79.0,75.5,29.89,NNE,16,0.0,0.0,89,0.00,,,0.01,WeatherCatV1.15B25,2013-06-15 03:19:00,
2013-06-14 22:24:00,78.9,75.4,29.89,NNE,16,0.0,0.0,89,0.00,,,0.01,WeatherCatV1.15B25,2013-06-15 03:24:00,
2013-06-14 22:29:00,78.8,75.6,29.89,NNE,16,0.0,0.0,90,0.00,,,0.01,WeatherCatV1.15B25,2013-06-15 03:29:00,
2013-06-14 22:34:00,78.7,75.5,29.89,NNE,16,0.0,0.0,90,0.00,,,0.01,WeatherCatV1.15B25,2013-06-15 03:34:00,
2013-06-14 22:39:00,78.6,75.4,29.90,NNE,16,0.0,0.0,90,0.00,,,0.01,WeatherCatV1.15B25,2013-06-15 03:39:00,
2013-06-14 22:44:00,78.4,75.5,29.90,NNE,16,0.0,0.0,91,0.00,,,0.01,WeatherCatV1.15B25,2013-06-15 03:44:00,
2013-06-14 22:49:00,78.3,75.4,29.91,NNE,16,0.0,0.0,91,0.00,,,0.01,WeatherCatV1.15B25,2013-06-15 03:49:00,
2013-06-14 22:54:00,78.2,75.3,29.91,NNE,16,0.0,0.0,91,0.00,,,0.01,WeatherCatV1.15B25,2013-06-15 03:54:00,
2013-06-14 22:59:00,78.2,75.7,29.91,NNE,16,0.0,0.0,92,0.00,,,0.01,WeatherCatV1.15B25,2013-06-15 03:59:00,
2013-06-14 23:01:00,78.2,75.3,29.91,NNE,16,0.0,0.0,91,0.00,,,0.01,WeatherCatV1.15B25,2013-06-15 04:01:00,
2013-06-14 23:02:00,78.2,75.3,29.91,NNE,16,0.0,0.0,91,0.00,,,0.01,WeatherCatV1.15B25,2013-06-15 04:02:00,
2013-06-14 23:03:00,78.2,75.3,29.91,NNE,16,0.0,0.0,91,0.00,,,0.01,WeatherCatV1.15B25,2013-06-15 04:03:00,
2013-06-14 23:08:00,78.2,75.3,29.91,NNE,16,0.0,0.0,91,0.00,,,0.01,WeatherCatV1.15B25,2013-06-15 04:08:00,
2013-06-14 23:13:00,78.2,75.3,29.91,NNE,16,0.0,0.0,91,0.00,,,0.01,WeatherCatV1.15B25,2013-06-15 04:13:00,
2013-06-14 23:18:00,78.2,75.7,29.91,NNE,16,0.0,0.0,92,0.00,,,0.01,WeatherCatV1.15B25,2013-06-15 04:18:00,
2013-06-14 23:23:00,78.1,75.6,29.91,NNE,16,0.0,1.0,92,0.00,,,0.01,WeatherCatV1.15B25,2013-06-15 04:23:00,
2013-06-14 23:28:00,78.1,75.2,29.91,NNE,16,0.0,0.0,91,0.00,,,0.01,WeatherCatV1.15B25,2013-06-15 04:28:00,
2013-06-14 23:33:00,78.0,75.1,29.91,NNE,16,0.0,0.0,91,0.00,,,0.01,WeatherCatV1.15B25,2013-06-15 04:33:00,
2013-06-14 23:38:00,77.9,75.4,29.90,NNE,16,0.0,1.0,92,0.00,,,0.01,WeatherCatV1.15B25,2013-06-15 04:38:00,
2013-06-14 23:43:00,77.9,75.1,29.91,NE,47,0.0,0.0,91,0.00,,,0.01,WeatherCatV1.15B25,2013-06-15 04:43:00,
2013-06-14 23:48:00,77.8,75.0,29.90,NE,47,0.0,0.0,91,0.00,,,0.01,WeatherCatV1.15B25,2013-06-15 04:48:00,
2013-06-14 23:53:00,77.7,74.9,29.90,NE,47,0.0,0.0,91,0.00,,,0.01,WeatherCatV1.15B25,2013-06-15 04:53:00,
2013-06-14 23:58:00,77.7,74.9,29.90,NE,47,0.0,0.0,91,0.00,,,0.01,WeatherCatV1.15B25,2013-06-15 04:58:00,